Location: Burera
(21.3780°N, 81.9534°E)
Time: 12:42:04
(UTC+00:00)

PSLV R/B - Pass Details

Date: 13 August 2020
Orbit: 593 x 629 km, 97.9° (Epoch: 21 September)

Event Time Altitude Azimuth Distance (km) Brightness Sun altitude
Rises 22:30:06 0° 5° (N) 2,903 7.4 -22.6°
Reaches altitude 10° 22:32:20 10° 1° (N) 1,991 6.5 -22.1°
Maximum altitude 22:36:33 55° 284° (WNW) 744 3.6 -21.2°
Enters shadow 22:36:42 55° 276° (W) 746 3.6 -21.2°
